Regional Weather Roundup
Issued by NWS New Orleans/Baton Rouge, LA

Home | Current Version | Previous Version | Graphics & Text | Print | Product List | Glossary On
Versions: 1 2 3 4 5 6 7 8 9 10 11 12 13 14 15 16 17 18 19 20 21 22 23 24 25 26 27 28 29 30 31 32 33 34 35 36 37 38 39 40 41 42 43 44 45 46 47 48 49 50
297
ASUS44 KLIX 190010
RWRLIX
NEW ORLEANS REGIONAL WEATHER ROUNDUP
NATIONAL WEATHER SERVICE NEW ORLEANS LA
700 PM CDT THU SEP 18 2014

NOTE: "FAIR" INDICATES FEW OR NO CLOUDS BELOW 12,000 FEET WITH NO
      SIGNIFICANT WEATHER AND/OR OBSTRUCTIONS TO VISIBILITY.
      SKY/WX - SKY CONDITION AND SIGNIFICANT WEATHER.
      TMP - AIR TEMPERATURE.     DP    - DEWPOINT TEMPERATURE.
      RH  - RELATIVE HUMIDITY.   PRES  - PRESSURE.
      HI  - HEAT INDEX.          WCI   - WIND CHILL INDEX.

*  THESE STATIONS ARE NOT NWS OR FAA STATIONS AND ARE NOT UNDER
   NWS QUALITY CONTROL.

LAZ038-040-048-061>063-065>067-069-190100-
SOUTHEAST LOUISIANA

CITY           SKY/WX    TMP DP  RH WIND       PRES   REMARKS
N.O. AUDUBON     N/A     82  70  68 MISG        N/A
6HR MIN TEMP:  78; 6HR MAX TEMP:  90;

N.O. INTL ARPT CLOUDY    79  65  62 CALM      29.88R
6HR MIN TEMP:  79; 6HR MAX TEMP:  88;

N.O. LAKEFRONT CLOUDY    78  68  71 S6        29.89R
6HR MIN TEMP:  78; 6HR MAX TEMP:  88; 6HR PCP:  0.06;

N.O. DOWNTOWN*   N/A     81  66  61 SE3       29.88S
6HR MIN TEMP:  81; 6HR MAX TEMP:  90;

SLIDELL        CLOUDY    82  75  79 E3        29.88R
6HR MIN TEMP:  81; 6HR MAX TEMP:  87;

BATON ROUGE    TSTM      72  70  93 SW7       29.90R FOG
6HR MIN TEMP:  72; 6HR MAX TEMP:  87; 6HR PCP:  0.35;

BOOTHVILLE     CLOUDY    82  74  76 S5        29.89R
6HR MIN TEMP:  82; 6HR MAX TEMP:  86;

BELLE CHASSE   CLOUDY    78  68  71 SE6       29.88R
6HR MIN TEMP:  74; 6HR MAX TEMP:  88; 6HR PCP: TRACE;

BOGALUSA*        N/A     80  70  72 CALM      29.91R
6HR MIN TEMP:  80; 6HR MAX TEMP:  87;

GALLIANO*      NOT AVBL
NEW ROADS*       N/A     82  75  79 CALM      29.89R
6HR MIN TEMP:  81; 6HR MAX TEMP:  85;

GONZALES*        N/A     73  73 100 CALM      29.90R
6HR MIN TEMP:  73; 6HR MAX TEMP:  87; 6HR PCP:  0.16;

HAMMOND*       CLOUDY    81  70  69 CALM      29.90S
HOUMA*         MOCLDY    81  72  74 CALM      29.88R
PORT FOURCHON* MOCLDY    81  75  83 SW7       29.92R

$$

MSZ070-080>082-190100-
SOUTHERN MISSISSIPPI

CITY           SKY/WX    TMP DP  RH WIND       PRES   REMARKS
MCCOMB         CLOUDY    81  73  76 CALM      29.91R
6HR MIN TEMP:  80; 6HR MAX TEMP:  84;

GULFPORT       CLOUDY    83  74  74 NE12G17   29.89R
6HR MIN TEMP:  83; 6HR MAX TEMP:  86;

BILOXI         HVY RAIN  73  70  88 NE16G35   29.91R FOG
6HR MIN TEMP:  75; 6HR MAX TEMP:  88; 6HR PCP:  0.30;

PASCAGOULA     CLOUDY    71  69  93 N7        29.92R
6HR MIN TEMP:  70; 6HR MAX TEMP:  88; 6HR PCP: TRACE;


$$

COASTAL OBSERVATIONS
LAKE AND NEARSHORE STATIONS

STATION/POSITION TIME  TEMP    WIND        PRES    WAVE
                       AIR SEA DIR/SP/G            HT/PER
                 (UTC) (F)     (DEG/KT/KT) (MB)    (FT/S)
PASCAGOULA       0000   77      10/  9/ 14 1012.4
WAVELAND YACHT   0000   78      60/ 12/ 14 1011.9
GRAND ISLE       0000   81 87  220/  6/ 10 1012.7
SOUTHWEST PASS   0000   81 91  250/ 17/ 19 1012.4
NEW CANAL        0000   81 83  130/  1/  3 1012.3
SHELL BEACH      0000   80 82  190/  6/  7 1011.9

OFFSHORE STATIONS

STATION/POSITION TIME  TEMP    WIND        PRES    WAVE
                       AIR SEA DIR/SP/G            HT/PER
                 (UTC) (F)     (DEG/KT/KT) (MB)    (FT/S)

$$




USA.gov is the U.S. government's official web portal to all federal, state and local government web resources and services.